Torna al catalogo

FENGYUN 1C DEB

AttivoSSO
NORAD 31235·DEBRIS·🇨🇳 China

Lanciato May 10, 1999 da Taiyuan Satellite Launch Center

Loading…

Prossimi Passaggi (prossime 24 ore)

TLE

AggiornatoSource: Space-Track

Epoca: Sep 14, 2026, 05:25 UTC

1 31235U 99025BLR 26257.22632795  .00006464  00000-0  24915-2 0  9990
2 31235  98.4508  39.3272 0161908 296.5000  61.9653 14.23641390670818

Traccia FENGYUN 1C DEB in tempo reale con AllMySat

Download on the App Store